Time,TemperatureF,DewpointF,PressureIn,WindDirection,WindDirectionDegrees,WindSpeedMPH,WindSpeedGustMPH,Humidity,HourlyPrecipIn,Conditions,Clouds,dailyrainin,SoftwareType,DateUTC
2013-09-06 00:10:00,67.3,62.0,30.11,SW,229,0.0,0.0,82,0.00,,,0.00,weatherlink.com 1.10,2013-09-06 04:10:00,
2013-09-06 00:25:00,66.8,61.0,30.10,SW,229,0.0,1.0,82,0.00,,,0.00,weatherlink.com 1.10,2013-09-06 04:25:00,
2013-09-06 00:40:00,66.5,61.0,30.11,SW,229,0.0,0.0,83,0.00,,,0.00,weatherlink.com 1.10,2013-09-06 04:40:00,
2013-09-06 00:56:00,66.0,61.0,30.11,SW,221,0.0,0.0,84,0.00,,,0.00,weatherlink.com 1.10,2013-09-06 04:56:00,
2013-09-06 01:11:00,65.7,61.0,30.11,SW,225,0.0,0.0,85,0.00,,,0.00,weatherlink.com 1.10,2013-09-06 05:11:00,
2013-09-06 01:26:00,65.4,61.0,30.11,SW,225,0.0,0.0,86,0.00,,,0.00,weatherlink.com 1.10,2013-09-06 05:26:00,
2013-09-06 01:41:00,65.1,61.0,30.11,SW,225,0.0,0.0,86,0.00,,,0.00,weatherlink.com 1.10,2013-09-06 05:41:00,
2013-09-06 01:56:00,65.0,61.0,30.11,SW,225,0.0,0.0,86,0.00,,,0.00,weatherlink.com 1.10,2013-09-06 05:56:00,
2013-09-06 02:11:00,65.1,61.0,30.11,SW,225,0.0,0.0,85,0.00,,,0.00,weatherlink.com 1.10,2013-09-06 06:11:00,
2013-09-06 02:26:00,65.0,61.0,30.11,SW,227,0.0,0.0,86,0.00,,,0.00,weatherlink.com 1.10,2013-09-06 06:26:00,
2013-09-06 02:41:00,64.9,61.0,30.11,SW,227,0.0,0.0,86,0.00,,,0.00,weatherlink.com 1.10,2013-09-06 06:41:00,
2013-09-06 02:56:00,64.2,60.0,30.11,SW,227,0.0,0.0,87,0.00,,,0.00,weatherlink.com 1.10,2013-09-06 06:56:00,
2013-09-06 03:11:00,64.0,60.0,30.11,SW,227,0.0,0.0,88,0.00,,,0.00,weatherlink.com 1.10,2013-09-06 07:11:00,
2013-09-06 03:26:00,64.1,60.0,30.12,SSE,167,0.0,0.0,87,0.00,,,0.00,weatherlink.com 1.10,2013-09-06 07:26:00,
2013-09-06 03:41:00,64.3,60.0,30.12,SSE,165,0.0,0.0,87,0.00,,,0.00,weatherlink.com 1.10,2013-09-06 07:41:00,
2013-09-06 03:56:00,63.9,60.0,30.12,SSE,165,0.0,0.0,88,0.00,,,0.00,weatherlink.com 1.10,2013-09-06 07:56:00,
2013-09-06 04:11:00,63.6,60.0,30.12,SSE,165,0.0,0.0,89,0.00,,,0.00,weatherlink.com 1.10,2013-09-06 08:11:00,
2013-09-06 04:41:00,64.4,59.0,30.12,South,187,0.0,1.0,82,0.00,,,0.00,weatherlink.com 1.10,2013-09-06 08:41:00,
2013-09-06 04:56:00,64.6,58.0,30.12,SSE,148,0.0,0.0,79,0.00,,,0.00,weatherlink.com 1.10,2013-09-06 08:56:00,
2013-09-06 05:11:00,64.5,58.0,30.13,SW,216,0.0,0.0,79,0.00,,,0.00,weatherlink.com 1.10,2013-09-06 09:11:00,
2013-09-06 05:26:00,64.4,57.0,30.13,SSW,209,0.0,0.0,78,0.00,,,0.00,weatherlink.com 1.10,2013-09-06 09:26:00,
2013-09-06 05:41:00,64.4,56.0,30.13,South,178,0.0,0.0,75,0.00,,,0.00,weatherlink.com 1.10,2013-09-06 09:41:00,
2013-09-06 05:56:00,64.3,56.0,30.14,SW,235,0.0,1.0,75,0.00,,,0.00,weatherlink.com 1.10,2013-09-06 09:56:00,
2013-09-06 06:11:00,63.8,56.0,30.14,SSW,211,0.0,0.0,77,0.00,,,0.00,weatherlink.com 1.10,2013-09-06 10:11:00,
2013-09-06 06:26:00,63.1,56.0,30.14,SE,136,0.0,0.0,77,0.00,,,0.00,weatherlink.com 1.10,2013-09-06 10:26:00,
2013-09-06 06:41:00,62.6,55.0,30.15,SSE,163,0.0,0.0,76,0.00,,,0.00,weatherlink.com 1.10,2013-09-06 10:41:00,
2013-09-06 06:56:00,62.3,55.0,30.16,South,171,0.0,0.0,77,0.00,,,0.00,weatherlink.com 1.10,2013-09-06 10:56:00,
2013-09-06 07:11:00,61.9,55.0,30.16,South,171,0.0,0.0,77,0.00,,,0.00,weatherlink.com 1.10,2013-09-06 11:11:00,
2013-09-06 07:26:00,61.7,54.0,30.16,SSW,200,0.0,0.0,77,0.00,,,0.00,weatherlink.com 1.10,2013-09-06 11:26:00,
2013-09-06 07:41:00,61.7,54.0,30.17,SSW,202,0.0,0.0,77,0.00,,,0.00,weatherlink.com 1.10,2013-09-06 11:41:00,
2013-09-06 07:56:00,61.7,56.0,30.18,SSW,202,0.0,0.0,81,0.00,,,0.00,weatherlink.com 1.10,2013-09-06 11:56:00,
2013-09-06 08:11:00,62.0,55.0,30.18,ESE,122,0.0,0.0,78,0.00,,,0.00,weatherlink.com 1.10,2013-09-06 12:11:00,
2013-09-06 08:26:00,62.7,55.0,30.18,WSW,251,0.0,0.0,77,0.00,,,0.00,weatherlink.com 1.10,2013-09-06 12:26:00,
2013-09-06 08:41:00,63.5,56.0,30.19,SW,235,0.0,0.0,77,0.00,,,0.00,weatherlink.com 1.10,2013-09-06 12:41:00,
2013-09-06 08:56:00,64.5,55.0,30.19,East,92,0.0,1.0,70,0.00,,,0.00,weatherlink.com 1.10,2013-09-06 12:56:00,
2013-09-06 09:11:00,65.7,54.0,30.19,East,92,0.0,0.0,67,0.00,,,0.00,weatherlink.com 1.10,2013-09-06 13:11:00,
2013-09-06 09:26:00,66.4,55.0,30.19,SSW,212,0.0,0.0,67,0.00,,,0.00,weatherlink.com 1.10,2013-09-06 13:26:00,
2013-09-06 09:41:00,67.0,54.0,30.19,SSE,167,0.0,2.0,63,0.00,,,0.00,weatherlink.com 1.10,2013-09-06 13:41:00,
2013-09-06 09:56:00,67.4,55.0,30.20,SSE,165,0.0,1.0,65,0.00,,,0.00,weatherlink.com 1.10,2013-09-06 13:56:00,
2013-09-06 10:11:00,67.5,54.0,30.20,East,84,2.0,2.0,63,0.00,,,0.00,weatherlink.com 1.10,2013-09-06 14:11:00,
2013-09-06 10:26:00,67.3,55.0,30.20,East,93,1.0,2.0,65,0.00,,,0.00,weatherlink.com 1.10,2013-09-06 14:26:00,
2013-09-06 10:41:00,67.6,56.0,30.20,South,185,1.0,5.0,67,0.00,,,0.00,weatherlink.com 1.10,2013-09-06 14:41:00,
2013-09-06 10:56:00,67.8,57.0,30.20,SE,138,0.0,3.0,68,0.00,,,0.00,weatherlink.com 1.10,2013-09-06 14:56:00,
2013-09-06 11:11:00,68.2,57.0,30.20,ENE,69,1.0,2.0,67,0.00,,,0.00,weatherlink.com 1.10,2013-09-06 15:11:00,
2013-09-06 11:27:00,69.4,58.0,30.20,East,96,0.0,2.0,68,0.00,,,0.00,weatherlink.com 1.10,2013-09-06 15:27:00,
2013-09-06 11:42:00,69.9,58.0,30.20,ENE,71,2.0,3.0,65,0.00,,,0.00,weatherlink.com 1.10,2013-09-06 15:42:00,
2013-09-06 11:57:00,70.1,58.0,30.20,South,185,2.0,4.0,66,0.00,,,0.00,weatherlink.com 1.10,2013-09-06 15:57:00,
2013-09-06 12:12:00,70.7,59.0,30.19,SSW,196,3.0,3.0,66,0.00,,,0.00,weatherlink.com 1.10,2013-09-06 16:12:00,
2013-09-06 12:27:00,71.0,58.0,30.19,South,188,0.0,3.0,63,0.00,,,0.00,weatherlink.com 1.10,2013-09-06 16:27:00,
2013-09-06 12:42:00,71.6,58.0,30.19,WNW,289,1.0,5.0,63,0.00,,,0.00,weatherlink.com 1.10,2013-09-06 16:42:00,
2013-09-06 12:57:00,72.8,60.0,30.18,SSW,207,2.0,4.0,64,0.00,,,0.00,weatherlink.com 1.10,2013-09-06 16:57:00,
2013-09-06 13:12:00,73.4,59.0,30.18,SSW,213,0.0,5.0,61,0.00,,,0.00,weatherlink.com 1.10,2013-09-06 17:12:00,
2013-09-06 13:27:00,73.8,59.0,30.18,NW,311,0.0,2.0,60,0.00,,,0.00,weatherlink.com 1.10,2013-09-06 17:27:00,
2013-09-06 13:42:00,73.8,58.0,30.17,ENE,77,0.0,3.0,58,0.00,,,0.00,weatherlink.com 1.10,2013-09-06 17:42:00,
2013-09-06 13:57:00,73.7,58.0,30.16,NE,46,0.0,2.0,59,0.00,,,0.00,weatherlink.com 1.10,2013-09-06 17:57:00,
2013-09-06 14:12:00,73.8,59.0,30.16,ENE,74,1.0,3.0,60,0.00,,,0.00,weatherlink.com 1.10,2013-09-06 18:12:00,
2013-09-06 14:27:00,74.0,59.0,30.15,NE,40,0.0,2.0,60,0.00,,,0.00,weatherlink.com 1.10,2013-09-06 18:27:00,
2013-09-06 14:42:00,74.2,59.0,30.15,West,265,0.0,3.0,59,0.00,,,0.00,weatherlink.com 1.10,2013-09-06 18:42:00,
2013-09-06 14:57:00,73.7,59.0,30.14,ENE,74,0.0,1.0,60,0.00,,,0.00,weatherlink.com 1.10,2013-09-06 18:57:00,
2013-09-06 15:12:00,75.1,59.0,30.14,ENE,65,1.0,3.0,58,0.00,,,0.00,weatherlink.com 1.10,2013-09-06 19:12:00,
2013-09-06 15:27:00,74.5,59.0,30.13,South,185,2.0,2.0,58,0.00,,,0.00,weatherlink.com 1.10,2013-09-06 19:27:00,
2013-09-06 15:42:00,75.2,58.0,30.12,ENE,77,1.0,4.0,56,0.00,,,0.00,weatherlink.com 1.10,2013-09-06 19:42:00,
2013-09-06 15:57:00,74.4,58.0,30.12,South,182,0.0,4.0,57,0.00,,,0.00,weatherlink.com 1.10,2013-09-06 19:57:00,
2013-09-06 16:12:00,75.0,57.0,30.12,SSW,202,1.0,4.0,54,0.00,,,0.00,weatherlink.com 1.10,2013-09-06 20:12:00,
2013-09-06 16:27:00,75.1,58.0,30.12,NE,49,0.0,7.0,55,0.00,,,0.00,weatherlink.com 1.10,2013-09-06 20:27:00,
2013-09-06 16:42:00,74.8,57.0,30.12,SW,223,0.0,2.0,55,0.00,,,0.00,weatherlink.com 1.10,2013-09-06 20:42:00,
2013-09-06 16:57:00,74.5,57.0,30.11,SSE,155,1.0,2.0,55,0.00,,,0.00,weatherlink.com 1.10,2013-09-06 20:57:00,
2013-09-06 17:12:00,74.8,57.0,30.11,ESE,118,0.0,4.0,54,0.00,,,0.00,weatherlink.com 1.10,2013-09-06 21:12:00,
2013-09-06 17:27:00,74.6,58.0,30.11,SE,142,1.0,3.0,57,0.00,,,0.00,weatherlink.com 1.10,2013-09-06 21:27:00,
2013-09-06 17:42:00,74.8,57.0,30.11,NE,49,0.0,2.0,54,0.00,,,0.00,weatherlink.com 1.10,2013-09-06 21:42:00,
2013-09-06 17:57:00,74.6,58.0,30.11,ENE,57,0.0,1.0,56,0.00,,,0.00,weatherlink.com 1.10,2013-09-06 21:57:00,
2013-09-06 18:12:00,74.4,58.0,30.11,SSW,194,0.0,3.0,57,0.00,,,0.00,weatherlink.com 1.10,2013-09-06 22:12:00,
2013-09-06 18:27:00,74.3,58.0,30.10,East,98,0.0,1.0,58,0.00,,,0.00,weatherlink.com 1.10,2013-09-06 22:27:00,
2013-09-06 18:42:00,73.9,58.0,30.10,ESE,115,0.0,3.0,58,0.00,,,0.00,weatherlink.com 1.10,2013-09-06 22:42:00,
2013-09-06 18:57:00,73.5,61.0,30.10,South,174,0.0,1.0,64,0.00,,,0.00,weatherlink.com 1.10,2013-09-06 22:57:00,
2013-09-06 19:12:00,72.6,61.0,30.10,South,174,0.0,0.0,66,0.00,,,0.00,weatherlink.com 1.10,2013-09-06 23:12:00,
2013-09-06 19:27:00,71.5,60.0,30.10,SSW,205,0.0,1.0,68,0.00,,,0.00,weatherlink.com 1.10,2013-09-06 23:27:00,
2013-09-06 19:42:00,70.3,60.0,30.10,SSW,205,0.0,0.0,70,0.00,,,0.00,weatherlink.com 1.10,2013-09-06 23:42:00,
2013-09-06 19:57:00,69.1,60.0,30.10,SSW,205,0.0,0.0,73,0.00,,,0.00,weatherlink.com 1.10,2013-09-06 23:57:00,
2013-09-06 20:12:00,68.3,60.0,30.10,SSW,205,0.0,0.0,75,0.00,,,0.00,weatherlink.com 1.10,2013-09-07 00:12:00,
2013-09-06 20:27:00,67.6,58.0,30.11,SSW,205,0.0,0.0,72,0.00,,,0.00,weatherlink.com 1.10,2013-09-07 00:27:00,
2013-09-06 20:42:00,67.1,58.0,30.11,SSW,205,0.0,0.0,73,0.00,,,0.00,weatherlink.com 1.10,2013-09-07 00:42:00,
2013-09-06 20:57:00,66.8,58.0,30.11,SSW,205,0.0,0.0,73,0.00,,,0.00,weatherlink.com 1.10,2013-09-07 00:57:00,
2013-09-06 21:12:00,66.6,59.0,30.12,SSW,205,0.0,0.0,76,0.00,,,0.00,weatherlink.com 1.10,2013-09-07 01:12:00,
2013-09-06 21:27:00,66.2,58.0,30.12,SSW,205,0.0,0.0,75,0.00,,,0.00,weatherlink.com 1.10,2013-09-07 01:27:00,
2013-09-06 21:42:00,65.9,58.0,30.12,SSW,205,0.0,0.0,76,0.00,,,0.00,weatherlink.com 1.10,2013-09-07 01:42:00,
2013-09-06 21:57:00,65.5,58.0,30.12,SSW,205,0.0,0.0,77,0.00,,,0.00,weatherlink.com 1.10,2013-09-07 01:57:00,
2013-09-06 22:12:00,65.4,58.0,30.13,SSW,194,0.0,0.0,77,0.00,,,0.00,weatherlink.com 1.10,2013-09-07 02:12:00,
2013-09-06 22:27:00,65.3,59.0,30.14,SSW,194,0.0,0.0,80,0.00,,,0.00,weatherlink.com 1.10,2013-09-07 02:27:00,
2013-09-06 22:42:00,64.9,59.0,30.14,SSW,194,0.0,0.0,80,0.00,,,0.00,weatherlink.com 1.10,2013-09-07 02:42:00,
2013-09-06 22:57:00,64.4,59.0,30.14,SSW,194,0.0,0.0,83,0.00,,,0.00,weatherlink.com 1.10,2013-09-07 02:57:00,
2013-09-06 23:12:00,63.9,59.0,30.14,SSW,194,0.0,0.0,84,0.00,,,0.00,weatherlink.com 1.10,2013-09-07 03:12:00,
2013-09-06 23:27:00,63.5,59.0,30.13,SSW,194,0.0,0.0,84,0.00,,,0.00,weatherlink.com 1.10,2013-09-07 03:27:00,
2013-09-06 23:42:00,63.1,59.0,30.13,SSW,194,0.0,0.0,85,0.00,,,0.00,weatherlink.com 1.10,2013-09-07 03:42:00,
2013-09-06 23:57:00,62.7,59.0,30.13,SSW,194,0.0,0.0,87,0.00,,,0.00,weatherlink.com 1.10,2013-09-07 03:57:00,